Regional Weather Roundup
Issued by NWS

Home | Current Version | Previous Version | Graphics & Text | Print | Product List | Glossary On
Versions: 1 2 3 4 5 6 7 8 9 10 11 12 13 14 15 16 17 18 19 20 21 22 23 24 25 26 27 28 29 30 31 32 33 34 35 36 37 38 39 40 41 42 43 44 45 46 47 48 49 50
445
ASUS43 KLSX 200507
RWRMO

WEATHER SUMMARY FOR MISSOURI
NATIONAL WEATHER SERVICE SPRINGFIELD MO
1100 PM CST SUN NOV 19 2017

NOTE: "FAIR" INDICATES FEW OR NO CLOUDS BELOW 12,000 FEET WITH NO
       SIGNIFICANT WEATHER AND/OR OBSTRUCTIONS TO VISIBILITY.
       CURRENT SKY AND/OR WEATHER CONDITIONS ARE NOT AVAILABLE FOR
       CHILLICOTHE AND FARMINGTON.

MOZ001>031-035>038-043-044-053-054-200600-
...NORTHERN AND WESTERN MISSOURI...

CITY           SKY/WX    TMP DP  RH WIND       PRES   REMARKS
KANSAS CTY INT CLOUDY    44  29  55 S14       30.03F
KANSAS C DTWN  CLOUDY    46  29  51 S12       30.04F
LEE`S SUMMIT   CLEAR     43  30  60 S14       30.06S
ST JOSEPH      CLOUDY    42  28  57 S13       30.01F
CHILLICOTHE      N/A     39  29  67 S6        30.06F
KIRKSVILLE     CLOUDY    39  28  64 SW12      30.06F

$$
MOZ066>068-077>081-088>096-101>105-200600-
...SOUTHWEST MISSOURI...

CITY           SKY/WX    TMP DP  RH WIND       PRES   REMARKS
SPRINGFIELD    CLOUDY    37  28  70 S10       30.16F WCI  30
JOPLIN         CLOUDY    41  29  62 S12       30.16F
BRANSON        CLEAR     39  25  56 CALM      30.20F

$$
MOZ032>034-039>042-045>050-055>058-069>072-200600-
...CENTRAL MISSOURI...

CITY           SKY/WX    TMP DP  RH WIND       PRES   REMARKS
COLUMBIA       CLEAR     33  25  72 S9        30.12F WCI  25
JEFFERSON CITY CLEAR     32  24  72 E6        30.15F WCI  26
ROLLA          CLEAR     34  23  64 S10       30.16S WCI  26
SEDALIA        CLEAR     42  30  62 S13       30.11F
WHITEMAN AFB   CLEAR     37  29  72 S12       30.05F WCI  29
WARRENSBURG    CLEAR     37  30  75 S10       30.09S
OSAGE BEACH    CLEAR     33  25  72 SE5       30.16S WCI  29

$$
MOZ051-052-059>065-200600-
...EAST CENTRAL MISSOURI...

CITY           SKY/WX    TMP DP  RH WIND       PRES   REMARKS
ST LOUIS INTL  CLEAR     35  21  56 CALM      30.17F
SPIRIT OF STL  CLEAR     26  23  88 CALM      30.17S
ST CHARLES     CLEAR     26  23  88 NE3       30.17F

$$
MOZ072>076-082>087-097>100-106>115-200600-
...SOUTH CENTRAL AND SOUTHEAST MISSOURI...

CITY           SKY/WX    TMP DP  RH WIND       PRES   REMARKS
CAPE GIRARDEAU CLEAR     28  24  85 CALM      30.23F
FARMINGTON     CLEAR     27  22  81 CALM      30.20F
POPLAR BLUFF   CLEAR     28  25  88 CALM      30.24F
WEST PLAINS    CLOUDY    31  21  66 S5        30.20F WCI  26

$$



USA.gov is the U.S. government's official web portal to all federal, state and local government web resources and services.